Overview Statistics Trail Chart Weather Telemetry Raw packets
 

This is the latest recevied weather packets stored in our database for station/object KE5OYL. If no packets are shown the sender has not sent any weather packets the latest 10 day(s).

<< 12 13 14 15 16 17 18 >>
Time Temp. Humidity Pressure Rain* Wind** Luminosity Snow
1788537591 30.56° C 67% 1015.3 hPa 0 mm - 576 W/m² -
1788537291 30.56° C 68% 1015.8 hPa 0 mm - 603 W/m² -
1788536990 30.56° C 67% 1015.6 hPa 0 mm - 553 W/m² -
1788536684 30° C 70% 1015.5 hPa 0 mm - 537 W/m² -
1788536379 30° C 71% 1015.5 hPa 0 mm - 526 W/m² -
1788536074 30° C 72% 1015.7 hPa 0 mm - 551 W/m² -
1788535771 30° C 72% 1015.4 hPa 0 mm - 506 W/m² -
1788535466 30° C 73% 1015.5 hPa 0 mm - 463 W/m² -
1788535165 29.44° C 74% 1015.5 hPa 0 mm - 463 W/m² -
1788534861 28.89° C 76% 1015.5 hPa 0 mm - 439 W/m² -
1788534556 28.89° C 76% 1015.6 hPa 0 mm - 421 W/m² -
1788534251 28.89° C 77% 1015.4 hPa 0 mm - 267 W/m² -
1788533948 28.89° C 78% 1015.8 hPa 0 mm - 408 W/m² -
1788533645 28.89° C 79% 1015.7 hPa 0 mm - 390 W/m² -
1788533340 28.89° C 79% 1015.3 hPa 0 mm - 384 W/m² -
1788533036 28.33° C 81% 1015.5 hPa 0 mm - 394 W/m² -
1788532731 28.33° C 81% 1015.6 hPa 0 mm - 167 W/m² -
1788532428 27.78° C 84% 1015.6 hPa 0 mm - 375 W/m² -
1788532124 27.78° C 84% 1015.5 hPa 0 mm - 387 W/m² -
1788531820 27.22° C 85% 1015.4 hPa 0 mm - 346 W/m² -
1788531519 26.67° C 86% 1015.5 hPa 0 mm - 217 W/m² -
1788531215 27.22° C 86% 1015.4 hPa 0 mm - 202 W/m² -
1788530911 26.67° C 87% 1015.7 hPa 0 mm - 178 W/m² -
1788530606 26.67° C 87% 1015.5 hPa 0 mm - 232 W/m² -
1788530304 26.67° C 88% 1015.6 hPa 0 mm - 132 W/m² -

* Rain latest hour (hover to see other rain measurements)
** Current wind speed in m/s (hover to see current wind gust speed)